星链-34809 (STARLINK-34809)

导读 | 豆包AI

STARLINK-34809是美国于2025年7月31日发射的星链卫星,隶属于SpaceX公司的星链星座项目。星链项目旨在构建全球卫星互联网星座,为全球各地提供高速低延迟的宽带网络服务,尤其覆盖偏远等网络基础设施匮乏区域,该卫星加入后进一步扩充了星链星座的在轨服务规模。

基本信息
目录编号:
65069
目录名称:
STARLINK-34809
国际标识:
2025-165P
轨道中心:
EARTH
卫星名称:
星链-34809
卫星全名:
星链-34809 (STARLINK-34809)
卫星状态:
在轨 (已飞行272 天)
发射日期:
2025-07-31 UTC
国别 :
美国 (US)
星等 :
--
轨道信息
数据来源 国际轨道数据 AOE轨道数据
星历时间 2026-04-29T11:53:51+0800
6小时前
查看轨道信息
2026-04-22T22:00:00+0800
6天前
查看轨道信息
半长轴 6927.64km 6927.646km
偏心率 0.0000919 0.0000757
轨道倾角 97.558° 97.589°
近地点辐角 195.193° 130.189°
升交点赤经 196.930° 190.482°
平近点角 164.927° 231.618°
近地点 548.866km 548.984km
远地点 550.14km 550.034km
周期 95.640分钟 95.640分钟
每日圈数 15.056528 15.056509
详细信息
固有亮度:
5
最大亮度:
2.5
卫星平台:
Starlink V1.0
覆盖范围:
全球
运营商:
太空探索技术公司
运营商所在国:
美国
制造商(研发单位):
太空探索技术公司
制造商所在国:
美国
使用方式:
暂无
卫星简介
Starlink 计划是 SpaceX 推出的全球卫星互联网项目,通过发射低轨道卫星,为全球尤其是偏远地区提供高速、低延迟的互联网服务。自 2019 年起,Starlink 已部署数千颗卫星,旨在缩小全球数字鸿沟,推动互联网普及。该项目还为军事、航空等行业提供通信支持,带来广泛经济效益。
2D轨道图
3D轨道图
轨道高度分析图
轨道倾角分析图
轨道综合分析图
查看轨道综合分析图